Terminal Aerodrome Forecast
Issued by NWS Lake Charles, LA

Home | Current Version | Previous Version | Text Only | Print | Product List | Glossary On
Versions: 1 2 3 4 5 6 7 8 9 10 11 12 13 14 15 16 17 18 19 20 21 22 23 24 25 26 27 28 29
241
FTUS44 KLCH 210543
TAFARA
TAF
KARA 210543Z 2106/2206 VRB06KT 5SM -SHRA BR OVC060
     FM211000 VRB04KT 3SM -SHRA BR OVC015
     FM211200 VRB03KT 2SM BR VCSH OVC007
     FM211600 VRB05KT P6SM VCSH OVC025
     FM212000 27008KT P6SM BKN050
     FM220100 32005KT P6SM SCT050=

USA.gov is the U.S. government's official web portal to all federal, state and local government web resources and services.